Hourly Data Report for August 15, 2017

TORONTO CITY
ONTARIO

43°40'00.000" N
79°24'00.000" W
112.50 m
6158355
71508
XTO

Download Data

Hourly Data (August 2017)
Hourly Data Report for August 15, 2017
TIME
LST
Temp Definition
°C
Dew Point Definition
°C
Rel Hum Definition
%
Precip. Amount Definition
mm

Wind Dir Definition
10's deg

Wind Spd Definition
km/h
Visibility Definition
km
Stn Press Definition
kPa
Hmdx Definition


Wind Chill Definition


Weather Definition


00:00 19.8 17.1 85 LegendMM LegendMM LegendMM   99.74     LegendNANA
01:00 19.0 16.8 87 LegendMM LegendMM LegendMM   99.70     LegendNANA
02:00 18.6 16.4 87 LegendMM LegendMM LegendMM   99.72     LegendNANA
03:00 19.5 15.9 80 LegendMM LegendMM LegendMM   99.72     LegendNANA
04:00 17.8 15.1 84 LegendMM LegendMM LegendMM   99.73     LegendNANA
05:00 16.9 14.5 86 LegendMM LegendMM LegendMM   99.69     LegendNANA
06:00 16.9 14.8 87 LegendMM LegendMM LegendMM   99.69     LegendNANA
07:00 18.6 15.0 80 LegendMM LegendMM LegendMM   99.71     LegendNANA
08:00
09:00
10:00
11:00 23.8 15.4 59 0.0 LegendMM LegendMM   99.77 28   LegendNANA
12:00 25.5 16.3 57 0.0 LegendMM LegendMM   99.76 30   LegendNANA
13:00 24.2 16.4 62 0.0 LegendMM LegendMM   99.77 29   LegendNANA
14:00 23.3 18.4 74 0.4 LegendMM LegendMM   99.81 30   LegendNANA
15:00 23.6 17.3 68 0.5 LegendMM LegendMM   99.79 29   LegendNANA
16:00 24.6 17.4 64 0.0 LegendMM LegendMM   99.78 30   LegendNANA
17:00 24.8 17.0 62 0.0 LegendMM LegendMM   99.79 30   LegendNANA
18:00 24.4 16.8 62 0.0 LegendMM LegendMM   99.82 30   LegendNANA
19:00 24.5 13.1 49 0.0 LegendMM LegendMM   99.88 27   LegendNANA
20:00 23.4 12.2 49 0.0 LegendMM LegendMM   99.92 26   LegendNANA
21:00 22.2 13.6 58 0.0 LegendMM LegendMM   100.01 25   LegendNANA
22:00 21.3 14.0 63 0.0 LegendMM LegendMM   100.05 25   LegendNANA
23:00 20.3 14.2 68 0.0 LegendMM LegendMM   100.10     LegendNANA

Notes on Data Quality.

Legend

  • E = Estimated
  • M = Missing
  • NA = Not Available*
  • [empty] = Indicates an unobserved value
Date modified: